Theta_e
335 335 334 334 334 335 334 334 334 333 332 330 329 327 323 322 317 316 314 316 317 320 320 319 328 329 330 328 329 328 328 328 330 330 330 329 330 329 328 328 329 330 330 330 330 331 332 332 333 334 336 338 340 342 343 343 345 347 347 350 351 351 352 350 350 351 351 351 351 352 353 355 356 357
336 336 336 334 334 335 333 333 334 332 331 330 329 328 327 326 321 319 314 314 319 321 322 321 323 328 327 327 327 328 328 328 329 330 330 329 329 327 328 329 329 329 328 328 328 329 329 330 331 332 333 334 336 339 340 341 342 344 345 347 349 350 350 349 349 349 350 351 351 350 351 352 353 353
336 336 335 335 333 334 333 333 332 332 330 329 329 328 326 324 324 322 319 315 318 321 322 323 324 324 326 326 326 327 328 328 329 330 330 329 328 330 329 328 327 327 327 327 327 327 327 328 329 329 331 332 334 336 338 339 340 341 342 344 346 347 347 348 348 349 350 350 350 349 350 350 350 351
336 335 334 334 334 334 332 332 331 330 330 329 328 328 327 326 325 325 321 317 317 321 320 321 324 326 326 327 325 326 327 328 329 329 329 329 329 328 327 327 326 326 326 326 326 325 325 326 328 329 330 332 334 336 336 336 337 338 339 340 342 344 346 345 345 347 348 349 348 348 349 349 349 350
334 334 334 334 334 334 332 331 331 329 329 329 328 328 327 326 326 324 320 318 318 321 324 324 324 325 326 325 327 325 326 327 328 328 329 329 327 327 326 326 327 326 325 325 325 325 325 325 326 327 329 330 333 335 337 337 336 337 336 337 338 339 342 342 342 344 346 346 347 347 348 348 348 349
334 334 334 334 334 334 332 331 330 330 329 327 327 327 326 325 325 325 323 321 318 318 322 322 324 323 325 322 327 325 325 326 328 327 328 328 327 326 326 325 326 326 325 324 323 324 324 325 326 327 329 330 331 332 333 334 333 334 334 335 335 336 335 336 338 341 342 344 345 346 346 347 347 348
333 332 333 333 334 333 332 331 330 330 328 327 326 324 325 324 325 325 324 322 319 318 319 322 321 322 324 323 323 326 326 327 327 326 326 326 326 326 326 325 325 326 325 324 323 323 324 325 325 326 327 327 327 328 329 330 331 331 331 331 333 334 334 334 335 338 340 342 343 345 345 345 346 347
332 331 331 331 332 333 331 331 330 329 328 327 327 325 326 326 325 325 325 323 321 320 318 321 322 323 322 323 326 326 327 326 326 326 326 326 325 325 325 325 324 324 324 323 323 323 323 323 323 323 324 324 324 324 325 326 328 328 328 328 329 330 330 330 332 335 336 337 340 342 343 344 344 342
332 330 330 331 331 331 330 330 329 329 327 327 327 326 326 326 325 325 325 324 323 320 319 320 323 324 324 324 325 326 324 325 326 326 324 324 324 324 324 323 324 324 324 324 324 323 323 323 323 323 324 324 323 323 324 325 325 326 326 326 326 327 328 328 328 330 331 332 334 335 338 341 343 343
331 331 331 331 331 330 329 329 329 329 328 328 327 326 326 326 326 325 325 325 323 322 321 320 320 323 322 322 324 325 326 323 321 322 323 323 323 322 322 322 322 323 323 323 323 323 324 324 324 323 323 323 323 323 323 323 323 323 322 321 321 323 325 326 328 328 328 329 331 333 334 337 339 340
330 330 330 331 331 330 330 329 330 329 329 328 327 328 327 328 326 325 324 324 323 321 320 321 321 320 322 322 320 324 325 324 322 319 318 318 321 322 321 320 322 322 322 324 324 324 324 324 324 322 322 323 323 323 322 322 322 322 321 319 318 319 320 321 324 326 326 327 328 328 328 331 336 338
331 331 331 331 331 331 331 331 331 330 329 329 328 328 328 327 325 324 324 323 322 320 320 319 319 320 320 321 322 324 323 320 320 321 318 315 316 318 319 321 319 321 321 321 322 324 324 324 323 322 323 323 323 323 324 324 325 324 322 321 321 321 319 320 321 323 323 323 323 324 325 326 330 333
329 329 330 330 330 331 331 328 327 327 325 329 328 328 328 326 325 324 324 322 321 320 319 318 320 319 319 320 320 319 318 318 316 319 319 317 317 318 317 319 322 321 320 321 321 322 324 323 324 325 326 328 328 328 330 330 331 328 323 322 323 323 321 319 320 321 322 322 322 321 323 325 327 330
328 329 329 330 331 330 328 327 325 323 321 321 327 330 329 327 326 325 323 322 321 320 318 318 319 318 318 318 319 319 319 320 320 318 318 315 316 317 316 318 320 322 321 319 319 321 324 323 322 324 323 326 328 329 332 335 335 332 327 325 324 323 323 321 320 320 320 321 321 320 320 322 325 326
330 330 329 329 329 330 329 330 326 323 322 322 321 320 321 322 328 326 323 322 322 320 319 320 320 318 318 319 320 320 319 319 318 317 317 316 315 314 312 310 317 322 321 319 317 317 322 322 319 320 322 323 324 325 325 330 332 328 327 326 325 324 323 323 322 320 319 319 320 320 319 320 322 323
330 329 328 328 328 328 328 329 329 328 326 323 322 321 320 319 319 320 324 324 322 322 320 319 320 319 319 319 320 320 319 319 319 319 318 317 315 314 313 313 312 319 322 318 316 315 319 321 319 319 321 323 324 325 324 324 327 328 326 326 325 325 324 323 324 324 322 321 321 322 322 322 323 323
328 328 328 328 328 327 326 328 330 330 330 324 321 319 319 319 318 318 318 319 324 325 322 319 319 320 320 319 320 321 321 322 318 318 316 317 316 316 314 314 315 318 322 318 315 313 317 320 319 318 321 323 324 325 325 324 325 327 327 326 325 325 324 323 323 323 323 322 321 321 322 321 321 322
327 327 326 326 326 327 328 328 328 328 328 327 327 327 327 326 325 320 318 317 316 318 320 319 318 321 322 319 321 323 322 319 317 316 315 316 315 314 314 317 317 319 321 317 315 313 315 319 318 317 320 323 324 325 325 324 325 326 326 326 324 324 323 323 323 322 322 322 321 320 319 319 319 320
327 325 325 325 325 326 327 328 328 328 327 327 326 325 325 325 325 325 325 325 325 324 323 322 322 322 322 322 322 322 322 320 319 318 316 316 316 316 317 317 318 318 321 319 317 310 315 320 318 318 320 322 323 325 323 322 322 323 323 324 325 323 323 323 323 322 321 321 320 319 318 317 317 316
325 325 325 325 325 326 326 323 320 321 323 322 322 322 322 323 323 323 321 319 320 322 322 322 322 321 321 316 321 320 318 318 318 317 317 317 316 314 313 312 315 315 319 320 317 313 314 319 318 318 321 323 322 324 326 323 321 320 321 324 324 323 321 321 322 321 321 321 320 319 316 314 314 313
324 325 325 325 326 326 326 321 315 315 317 320 320 320 319 320 319 319 321 317 315 314 312 311 312 312 312 312 311 311 311 315 315 316 314 312 314 312 310 311 312 313 316 318 318 315 313 317 318 319 322 322 321 323 325 327 324 323 322 322 323 322 321 320 320 320 321 320 320 320 318 315 313 314
323 324 327 328 328 325 324 315 313 315 317 319 318 317 316 315 316 318 320 319 318 313 312 312 312 312 313 312 312 312 311 311 312 315 310 313 314 311 312 309 310 312 314 316 318 315 314 318 319 318 321 324 324 324 325 327 327 325 324 322 322 321 320 320 318 320 320 320 320 319 317 314 314 322
322 323 323 322 319 318 316 309 310 310 313 316 316 316 315 315 316 318 317 315 314 314 314 315 316 317 315 317 318 318 313 313 314 317 316 316 314 311 311 311 310 308 311 317 320 314 315 317 319 320 317 315 322 327 327 328 329 329 332 338 333 322 321 320 318 316 317 318 318 318 315 314 314 327
322 321 321 321 316 313 310 307 304 306 306 314 316 315 316 315 315 317 314 314 313 313 313 314 315 314 315 316 316 316 316 316 317 317 317 316 314 311 310 311 311 308 310 316 319 315 316 318 317 321 318 315 315 326 328 329 331 332 336 340 340 329 323 321 318 315 315 316 316 316 315 313 315 329
320 320 320 319 316 312 308 304 303 301 303 308 315 316 316 316 315 310 311 312 312 313 313 313 313 313 314 314 314 314 314 315 316 316 314 314 314 312 311 310 310 310 313 318 321 319 316 318 317 320 320 319 318 320 328 331 336 337 340 343 340 340 335 332 328 330 316 312 312 313 312 312 313 326
317 318 318 319 316 308 306 303 301 300 302 306 314 315 305 304 305 311 313 312 312 311 311 311 311 311 311 311 311 312 313 313 314 313 312 313 313 314 314 313 311 311 312 318 320 321 320 318 319 318 320 319 319 320 322 330 338 341 344 343 343 343 339 336 333 334 333 327 324 317 320 312 314 316
317 316 317 318 314 305 300 298 299 301 302 305 312 304 302 304 306 310 312 311 309 309 309 309 308 309 310 309 309 310 310 311 312 312 312 313 315 316 317 318 317 316 317 320 325 325 323 320 324 321 320 322 320 323 323 326 332 341 342 341 341 343 340 339 336 335 335 330 329 314 312 311 313 315
314 316 316 315 305 300 297 296 300 302 304 312 302 300 303 307 310 312 311 309 308 308 307 307 307 307 308 308 308 309 310 310 311 312 314 314 315 315 315 316 319 319 320 322 323 325 325 322 323 325 324 323 322 324 325 333 336 337 337 340 340 341 338 337 336 336 335 333 329 321 322 319 318 317
316 309 304 301 300 300 298 299 303 306 306 304 304 305 306 310 311 310 309 307 307 306 306 305 305 307 308 308 308 310 310 311 312 312 313 314 314 314 315 315 318 319 321 321 322 324 325 325 324 326 326 326 325 327 329 333 336 336 337 336 334 336 335 336 336 335 333 332 329 324 323 324 320 321
306 305 305 306 304 304 306 311 315 314 313 308 308 308 308 309 310 309 308 307 306 305 305 305 305 306 307 308 309 310 310 309 309 310 310 310 310 311 312 312 313 317 319 320 322 322 324 325 325 325 325 326 326 326 330 331 333 338 338 336 337 335 335 335 335 335 332 330 329 327 327 328 325 322
309 311 313 313 310 311 311 312 310 311 309 310 309 309 309 309 308 308 308 307 305 305 304 304 305 305 307 308 308 307 307 307 309 310 311 309 308 310 311 311 312 314 316 319 321 322 323 325 325 325 322 322 324 325 330 330 331 334 336 338 336 331 332 334 334 334 333 331 329 327 326 326 325 325
308 313 309 309 314 313 311 309 308 309 309 309 308 306 307 307 307 306 305 305 305 304 304 304 305 305 306 305 306 306 306 306 308 309 309 309 308 309 309 309 309 312 313 316 318 322 325 324 324 327 327 326 324 327 331 332 331 333 334 335 336 336 332 332 333 333 333 330 327 325 325 326 325 326
311 313 311 312 309 310 309 306 304 304 304 305 305 303 303 305 305 305 305 303 302 303 303 303 303 304 304 304 305 305 305 306 306 308 307 308 307 307 308 308 309 310 310 312 315 318 320 322 325 327 326 320 319 321 326 327 330 333 331 332 334 333 332 333 333 331 330 329 327 326 324 326 326 326
309 308 307 308 307 307 306 304 303 302 302 303 302 303 302 304 304 304 303 303 302 302 303 303 303 303 302 302 303 303 303 305 306 306 305 306 307 306 306 306 307 310 312 312 314 316 318 319 323 321 320 318 317 315 314 315 324 331 331 332 333 333 333 334 332 330 330 330 328 325 325 325 326 327
308 308 307 305 306 305 304 303 303 303 303 303 302 301 302 302 302 302 301 301 301 302 302 302 302 302 302 301 302 302 303 303 304 304 306 306 305 305 306 306 307 309 310 311 313 315 317 317 318 320 320 321 320 317 317 313 310 316 329 331 333 333 332 333 332 330 330 331 330 327 326 327 326 328
306 306 305 304 303 303 303 303 304 303 302 302 301 300 299 299 299 299 299 300 300 301 301 301 301 301 301 301 301 302 302 302 303 303 303 303 303 304 305 306 307 308 310 311 313 315 317 316 316 315 317 320 320 316 314 315 312 308 315 326 329 332 333 333 332 331 330 331 331 331 328 328 328 329
304 304 304 303 304 303 303 304 303 302 301 301 300 299 298 297 297 298 299 300 300 301 300 300 299 300 300 300 301 301 301 301 301 302 302 303 303 304 304 305 307 308 308 310 314 315 316 315 315 313 312 314 313 309 309 315 312 310 307 309 319 326 331 333 331 330 331 332 332 332 332 332 332 332
304 304 304 304 304 304 305 304 302 301 301 301 300 299 297 296 297 297 299 299 299 299 299 298 299 299 299 300 299 299 300 301 301 301 301 301 301 301 302 303 304 307 307 310 313 315 316 316 315 314 312 309 308 307 307 311 312 312 308 307 313 319 323 330 330 329 330 332 332 334 336 335 336 337
305 305 305 304 305 305 304 303 301 300 299 299 298 298 296 296 296 297 298 298 298 298 298 298 298 299 298 298 299 299 299 299 299 300 300 301 301 301 302 303 304 306 308 309 312 314 315 315 315 314 314 312 309 309 310 310 310 315 312 305 308 315 317 322 329 331 331 330 332 334 333 334 333 328
306 306 305 305 305 303 302 301 300 299 298 298 296 297 295 296 295 296 297 297 297 297 297 297 297 296 297 298 298 298 299 299 299 299 300 300 301 302 302 304 305 305 306 307 309 312 314 314 316 315 316 315 317 317 316 315 316 317 317 313 304 307 312 318 323 329 331 332 332 330 329 332 331 331
307 306 307 305 303 302 300 298 297 298 297 296 296 296 295 294 295 296 296 296 296 296 296 296 296 296 296 297 298 298 298 298 299 299 299 300 300 301 302 303 303 305 305 306 308 309 311 314 319 317 321 319 319 320 316 312 310 312 314 316 309 306 306 310 315 318 320 324 332 331 329 329 329 330
306 304 302 301 301 299 298 297 296 296 296 295 294 294 294 295 295 293 294 295 294 296 295 295 295 296 296 297 298 298 298 297 298 298 299 298 298 299 301 302 302 303 304 304 306 308 313 317 321 320 319 318 317 313 310 311 310 312 314 317 319 312 309 308 309 311 313 315 324 330 328 328 330 328
304 302 301 301 299 298 297 297 295 295 294 294 294 294 294 294 293 293 293 293 294 294 294 294 295 295 295 297 298 299 298 298 298 298 298 298 298 298 299 300 302 303 304 306 307 310 312 315 318 318 318 316 316 316 312 313 313 314 314 315 315 318 319 314 311 311 311 311 310 310 314 322 326 324
302 302 301 300 298 297 296 295 294 294 294 293 294 294 294 293 294 293 292 292 292 293 293 294 294 295 295 297 298 299 299 299 298 298 298 299 299 298 299 300 302 302 304 306 306 308 310 313 315 316 315 313 314 314 313 314 313 314 314 315 316 315 315 317 319 316 315 314 311 311 311 309 309 309
302 300 299 297 296 295 295 294 294 293 292 293 293 294 294 292 294 292 292 292 292 292 293 293 294 295 296 297 298 297 299 298 297 298 299 299 299 299 299 299 300 301 302 304 306 306 308 310 312 313 313 313 313 313 316 315 313 313 314 314 314 315 315 315 314 314 315 316 312 310 311 311 311 310
Wind_Speed
4 4 6 6 5 5 3 4 5 5 4 4 4 6 7 5 3 4 4 4 4 2 5 3 3 4 4 4 3 4 5 7 9 8 8 7 7 9 14 15 16 16 17 18 18 18 18 19 20 21 21 20 20 19 19 19 20 20 20 20 20 21 21 21 21 20 20 20 21 21 22 22 22 22
4 4 4 4 5 4 4 5 5 5 6 5 5 5 3 5 6 4 5 8 4 3 3 5 4 3 4 3 5 4 6 8 10 7 7 8 8 13 16 16 16 17 17 18 18 18 19 19 20 20 20 20 20 21 20 20 19 20 20 21 21 21 21 20 20 21 21 21 21 21 21 21 22 21
3 5 6 4 5 4 5 5 5 4 4 4 4 4 3 6 5 5 3 6 4 4 4 4 5 4 4 4 5 5 6 7 9 8 7 8 12 17 13 15 16 16 17 18 18 18 18 19 20 20 20 20 20 21 21 21 20 20 20 21 21 22 21 21 21 21 22 22 21 21 21 21 21 21
3 4 5 6 6 4 4 4 4 4 4 5 5 4 4 4 5 5 5 7 12 5 5 6 7 6 8 5 6 7 6 6 10 8 8 9 13 10 9 12 15 16 17 18 18 19 19 19 20 21 21 21 21 21 21 21 21 21 21 21 21 22 22 21 21 21 21 21 21 21 21 21 21 21
4 4 5 6 6 4 5 5 4 4 5 4 4 5 4 4 4 5 6 8 9 9 4 5 5 4 5 8 4 6 6 6 5 7 8 8 8 8 9 10 13 16 17 18 18 19 20 20 20 21 22 22 22 22 22 22 22 21 21 21 21 21 21 21 21 21 21 21 21 21 21 21 21 21
4 4 5 6 6 4 6 5 5 6 5 5 5 5 5 6 6 5 5 6 6 12 8 4 4 6 5 7 7 6 8 7 6 8 8 7 7 8 9 9 10 14 18 18 19 20 20 21 20 21 22 22 22 23 23 23 22 22 21 21 20 21 21 20 20 21 21 20 20 21 21 21 21 21
4 4 5 7 5 3 5 5 5 5 5 5 6 7 5 6 6 5 7 6 10 13 13 9 6 6 6 6 10 9 8 7 6 9 9 8 7 7 9 9 9 13 18 20 20 20 21 21 21 21 21 22 22 23 23 23 22 22 21 21 21 20 20 20 20 21 21 21 21 21 21 21 21 21
5 6 6 7 5 4 5 5 4 4 4 5 6 6 6 6 7 6 5 7 8 10 12 10 8 6 7 8 7 7 7 9 8 7 8 8 8 8 8 9 9 12 17 19 21 21 21 21 22 22 22 22 22 22 22 22 22 21 21 21 21 20 20 20 20 21 21 21 21 21 21 22 22 21
6 6 7 8 4 3 4 4 4 4 6 6 5 6 6 6 6 5 5 5 6 9 11 11 7 6 7 8 9 8 8 9 8 8 8 8 8 9 9 9 9 15 18 19 20 20 21 21 22 22 22 22 22 22 22 22 22 22 22 21 21 21 20 20 20 21 21 21 21 21 21 21 21 21
6 7 7 6 4 4 5 5 5 4 6 5 6 7 6 6 5 5 6 5 7 9 11 12 14 10 10 10 9 8 7 11 13 10 8 7 7 7 8 8 8 8 9 9 11 14 17 19 20 21 21 22 23 23 22 22 22 22 22 22 21 21 21 21 21 21 21 21 21 21 21 21 21 21
6 6 6 6 5 5 5 6 6 6 6 5 7 6 6 5 4 5 6 5 8 9 10 11 12 12 11 9 12 10 8 10 10 11 9 9 7 7 7 10 8 8 11 14 17 18 19 21 20 20 22 23 24 24 23 23 22 22 22 22 21 21 21 21 21 22 22 22 22 21 21 21 21 21
6 6 6 6 6 6 6 6 7 6 6 5 6 5 5 5 5 6 5 6 7 8 9 9 11 10 11 11 10 10 10 9 7 6 6 10 10 10 9 7 10 9 10 12 11 12 15 16 18 19 20 22 23 24 23 24 24 24 23 22 22 21 21 21 21 22 22 22 22 22 21 21 20 20
5 5 5 6 6 7 8 10 9 8 7 5 6 6 5 5 5 5 5 7 7 8 8 9 9 10 11 11 11 12 11 8 8 6 7 10 10 10 11 9 7 9 11 11 12 11 10 12 12 11 11 12 16 18 20 18 22 23 22 23 22 22 22 21 22 22 22 21 21 21 21 21 21 20
6 6 6 6 10 10 10 10 11 12 12 12 9 7 5 6 5 6 8 8 8 8 9 9 9 11 12 13 12 12 11 9 7 8 8 10 10 11 12 11 6 7 10 12 13 11 9 11 14 13 14 13 13 12 12 12 13 16 20 23 23 23 22 22 22 22 22 21 21 21 21 21 21 21
6 5 6 5 5 6 6 7 10 11 12 12 13 14 14 10 7 6 9 9 9 9 9 9 10 11 13 14 13 13 11 7 8 8 7 9 10 10 13 18 8 7 8 12 14 16 10 11 15 16 15 15 14 14 14 17 17 19 20 21 22 23 22 22 22 22 22 22 23 22 22 22 21 20
6 6 5 4 3 3 5 5 6 8 10 10 11 12 12 12 12 11 11 10 9 9 10 10 10 11 12 13 13 13 8 8 8 8 9 9 10 11 12 15 16 9 8 13 15 18 12 11 14 16 15 15 14 15 16 19 20 20 21 21 21 21 22 22 22 22 23 23 23 23 22 22 21 21
7 5 5 4 5 4 6 6 5 5 7 8 9 10 10 10 10 11 12 12 12 11 10 6 9 10 11 12 14 15 13 10 13 13 12 11 11 11 13 14 14 13 10 12 15 19 13 12 15 17 15 14 14 14 17 21 22 21 20 21 21 21 21 22 22 22 23 23 23 23 23 22 22 21
7 6 5 4 5 5 5 4 4 5 5 5 5 5 5 5 6 7 9 11 13 13 10 9 10 12 11 12 12 17 16 15 15 16 16 14 16 17 17 17 18 19 9 13 15 19 13 12 14 17 16 13 14 14 17 19 19 18 20 21 21 21 21 22 22 23 23 23 23 23 23 22 22 21
6 5 4 4 5 5 5 4 4 5 7 7 8 8 9 7 6 6 6 5 5 6 6 8 10 12 13 13 14 15 15 15 15 15 18 20 19 19 18 20 18 17 10 16 12 19 12 7 11 16 15 14 15 15 16 20 21 21 20 19 21 22 22 22 22 22 23 23 23 23 23 22 22 21
4 4 4 4 4 5 5 6 6 5 5 6 7 8 8 7 6 6 4 5 6 7 7 8 9 10 12 12 13 14 13 13 15 16 16 15 14 14 15 16 15 16 12 13 13 15 16 12 13 15 13 12 15 14 13 16 20 22 23 22 22 22 22 22 22 22 22 23 23 23 23 22 22 21
3 3 3 4 4 5 4 3 5 4 2 4 4 5 6 6 6 7 5 5 8 10 11 13 14 15 16 17 19 19 21 16 14 11 13 13 11 12 15 16 18 18 14 12 12 14 16 14 14 14 12 12 14 14 13 13 16 20 22 23 23 22 22 22 22 22 22 23 23 23 23 22 21 22
2 3 6 6 4 4 4 4 4 3 1 3 4 4 5 6 7 8 5 4 4 7 11 13 14 14 15 16 17 18 17 16 12 9 13 13 11 13 13 17 18 17 15 16 13 14 15 15 13 12 11 10 11 13 12 12 13 16 16 20 22 22 22 22 22 22 22 23 23 23 23 22 20 14
2 2 2 2 1 2 2 4 3 3 3 3 4 3 3 5 8 7 5 6 9 9 10 9 10 10 9 10 11 12 13 15 14 10 11 10 10 14 14 14 17 19 16 7 8 12 14 12 13 9 8 10 9 9 11 11 12 13 12 11 13 20 22 22 21 22 22 22 22 23 23 22 18 10
2 1 2 0 3 1 2 2 1 3 4 4 2 2 3 5 7 4 7 8 9 11 10 11 12 12 12 10 9 9 10 11 12 10 9 10 10 12 15 14 14 16 17 17 13 13 15 13 13 8 11 9 8 7 10 11 13 13 12 12 11 14 19 19 17 21 21 21 21 21 21 20 18 12
2 2 2 0 2 1 3 2 2 4 4 4 2 2 3 3 6 7 7 8 9 9 9 10 10 10 10 9 8 8 9 9 10 10 11 11 10 11 12 15 17 19 18 19 22 15 11 10 11 8 8 9 9 9 7 8 9 10 12 11 12 10 8 11 10 10 14 18 19 20 18 19 21 17
2 2 2 1 2 3 1 2 4 4 4 5 2 2 4 7 7 6 7 7 7 7 7 8 9 9 10 10 9 9 9 9 10 11 11 12 12 11 12 15 19 20 20 21 27 17 11 10 9 7 7 7 10 10 10 6 7 8 9 12 11 10 10 11 10 11 11 11 10 14 15 20 21 21
1 1 1 1 1 2 1 3 3 4 3 3 2 4 6 6 7 6 5 6 6 7 7 8 8 8 8 10 11 11 10 10 11 11 11 13 13 12 14 16 15 17 18 19 19 16 10 9 7 8 8 8 9 7 10 8 5 6 6 9 9 11 9 9 12 11 11 10 11 15 15 16 19 21
1 1 1 2 3 3 4 3 4 2 2 1 3 5 6 6 5 4 5 6 6 6 7 7 8 8 8 10 11 11 11 12 12 12 12 13 14 14 14 16 17 17 19 17 14 13 10 9 9 10 10 10 9 9 9 8 6 6 8 8 7 9 8 10 9 9 9 10 8 9 9 9 10 12
0 2 4 6 6 4 2 3 3 2 2 3 4 4 5 4 3 4 4 6 6 6 6 7 8 8 8 9 11 11 12 13 12 10 11 12 13 13 13 15 17 17 14 13 12 11 10 7 8 9 8 7 9 10 8 6 5 7 7 8 7 7 8 9 9 9 9 9 9 10 11 11 11 11
2 3 4 1 5 8 6 4 3 2 2 1 3 3 4 3 3 4 4 5 5 5 6 6 8 8 9 9 10 12 11 11 10 10 11 13 13 13 14 15 16 15 13 12 11 11 9 7 7 5 6 7 7 9 9 9 7 5 7 8 6 4 6 9 10 9 9 10 10 11 10 10 11 13
1 2 2 4 6 7 6 6 5 3 2 1 2 2 3 3 3 4 4 4 5 5 6 7 8 9 10 10 11 9 10 11 9 8 10 12 12 12 13 13 15 15 16 14 10 10 9 8 6 5 7 8 7 8 6 4 6 6 6 7 8 7 6 8 8 9 9 9 9 7 7 7 8 11
2 3 6 7 6 5 4 3 2 2 1 2 2 2 3 3 4 5 6 5 4 4 5 7 8 9 9 10 9 10 10 9 9 9 10 9 12 12 12 12 14 15 15 16 14 14 13 8 8 4 5 6 7 7 4 4 5 5 5 5 5 4 5 8 7 8 9 9 9 9 10 10 12 11
3 4 4 4 3 2 2 2 2 2 1 1 2 3 3 3 3 3 3 4 5 5 6 7 8 8 9 9 9 9 10 10 10 9 10 10 10 12 10 11 13 14 15 16 15 14 13 12 9 6 2 5 4 4 4 6 6 5 5 5 6 3 6 8 6 5 7 9 10 9 9 8 9 9
3 2 3 2 3 3 3 2 1 1 1 1 1 1 2 2 3 4 4 4 5 6 6 6 7 7 8 9 9 9 10 10 10 9 9 10 10 10 11 11 13 13 13 13 14 13 13 12 9 4 4 5 7 9 6 4 5 4 7 7 6 4 4 4 6 6 7 9 10 10 8 7 6 7
2 3 3 3 3 3 3 2 1 1 0 1 1 2 2 2 3 4 4 5 6 6 6 6 6 6 7 8 8 9 9 10 11 10 9 8 9 10 9 10 13 14 13 14 14 13 12 11 9 5 2 1 2 5 13 10 7 6 3 6 4 4 5 5 7 7 4 4 7 8 7 6 6 7
2 2 3 4 3 3 3 2 1 1 0 0 1 2 4 4 3 4 5 6 6 5 5 6 7 7 7 8 8 9 9 10 9 9 10 10 11 11 11 10 11 13 13 12 13 12 11 11 10 7 5 3 1 1 3 11 9 4 4 2 2 3 5 6 6 6 6 5 6 8 8 8 7 7
3 3 3 4 3 2 2 2 1 1 1 1 1 2 3 4 4 4 5 6 5 5 5 6 6 6 7 8 8 8 8 9 10 9 9 9 8 9 10 10 10 11 12 13 12 11 11 11 11 10 8 6 7 5 4 3 5 14 6 5 5 3 1 5 7 6 6 6 6 7 7 6 6 6
4 4 3 3 2 2 2 2 2 1 1 1 1 2 2 2 3 4 4 4 4 5 5 5 5 6 6 7 8 9 9 9 8 8 8 8 10 11 10 10 12 11 11 11 10 10 11 11 11 10 8 8 6 6 7 5 6 13 17 7 4 4 4 2 6 5 4 4 5 6 6 7 7 8
4 4 3 3 2 2 2 2 1 1 1 1 1 2 2 2 2 3 3 4 4 4 5 5 5 6 7 7 7 8 9 9 10 10 10 8 9 10 11 11 11 12 10 11 11 10 11 12 12 12 10 7 7 5 5 8 11 7 10 16 8 5 4 2 4 5 5 5 4 3 3 3 5 6
3 3 3 2 2 2 2 1 1 1 1 1 1 1 2 2 2 3 3 4 4 5 4 4 6 6 6 7 7 8 8 8 9 9 9 8 8 9 9 9 8 9 10 10 10 11 11 13 13 12 10 10 6 3 2 1 2 3 8 14 19 9 4 3 2 3 6 5 5 4 3 4 4 2
2 2 2 2 3 2 2 2 1 1 1 1 1 1 1 1 2 2 3 4 4 4 4 5 5 6 6 7 7 7 8 9 9 9 9 9 9 9 11 11 9 9 10 11 10 10 10 9 13 16 10 7 7 4 2 7 11 10 9 8 12 16 15 11 4 2 2 1 5 5 4 6 6 5
3 3 2 2 3 2 2 2 1 1 1 1 1 1 1 1 1 3 3 3 3 3 4 4 5 6 6 6 7 7 7 8 9 9 9 9 10 10 10 9 9 11 10 12 11 10 10 10 10 8 8 8 9 11 12 10 9 8 7 6 6 8 13 17 18 16 10 5 1 4 3 2 3 6
3 3 3 3 3 2 2 2 1 1 1 1 1 0 1 1 1 2 3 3 3 3 4 4 5 5 6 6 6 6 7 8 9 9 9 9 9 9 10 9 9 9 8 9 9 8 9 9 9 9 8 9 9 8 10 10 9 8 7 7 8 6 6 10 16 19 20 19 14 7 2 0 2 4
3 3 3 3 3 2 2 1 1 1 1 1 1 1 1 1 1 2 2 3 3 4 4 4 5 5 6 6 7 6 6 7 8 9 9 8 8 8 8 9 9 8 8 9 10 10 8 8 8 8 8 9 8 9 10 9 9 9 8 7 7 8 9 7 6 11 17 20 19 16 14 11 8 5
3 3 4 3 3 2 2 1 1 1 1 1 1 1 1 1 1 1 2 2 3 4 4 4 5 5 6 6 7 7 7 8 8 8 7 8 8 7 8 8 8 9 9 8 9 10 10 8 8 8 7 8 8 7 8 8 8 8 9 10 11 9 8 7 8 11 12 12 14 17 17 16 14 12
Wind_Direction
221 223 207 213 229 226 203 204 206 201 186 189 177 178 191 169 232 283 277 242 242 234 207 243 259 218 228 273 285 291 282 295 304 304 302 295 293 294 301 302 303 302 304 303 303 301 299 298 296 293 289 283 277 272 268 267 266 265 262 257 252 250 249 246 244 242 239 230 228 228 227 228 229 230
229 232 230 221 231 223 202 212 208 198 197 185 188 186 185 165 209 220 273 286 196 236 231 220 253 220 238 261 287 284 284 286 297 287 287 292 289 297 297 299 301 301 300 299 298 297 297 296 295 292 288 283 278 273 268 263 261 260 260 258 255 252 249 246 242 239 239 234 229 228 228 228 228 228
225 229 239 230 239 223 218 221 214 214 199 195 191 192 170 205 209 219 217 289 259 180 218 236 236 261 257 268 272 275 276 284 291 289 285 284 290 299 299 296 296 295 294 295 295 295 294 294 293 292 288 284 278 272 268 264 259 256 255 254 253 251 249 247 243 239 237 235 231 228 228 228 228 228
235 231 238 237 236 226 220 229 223 217 208 200 200 187 190 205 209 203 228 241 274 237 224 257 269 263 284 267 266 265 266 269 283 284 282 285 295 298 293 289 290 291 292 292 294 294 293 292 292 290 288 284 280 274 269 264 259 254 252 250 250 249 248 247 244 241 238 235 233 230 228 228 228 228
239 234 241 249 244 222 222 224 219 219 218 207 211 203 202 220 204 205 224 252 268 278 204 225 250 262 278 286 220 262 268 278 277 276 279 285 289 289 287 289 288 289 291 292 292 293 292 291 288 288 286 284 280 275 271 266 259 253 249 247 246 245 245 244 243 241 239 236 234 231 229 228 228 228
238 239 244 254 250 216 224 216 219 218 210 209 214 217 209 223 233 192 216 238 255 281 282 238 224 264 221 264 278 274 287 289 292 289 289 286 280 280 285 286 288 287 292 292 291 289 289 288 286 284 284 283 282 277 271 266 260 254 249 245 242 242 242 241 240 239 238 237 234 233 232 230 229 228
250 242 242 251 249 217 220 221 228 217 223 215 222 229 218 233 237 215 207 233 268 279 283 284 273 270 271 253 289 290 285 282 281 286 284 286 280 273 277 281 283 285 290 290 289 287 286 285 285 283 281 282 281 279 273 266 260 254 248 244 240 238 238 237 236 236 236 235 234 233 232 232 231 229
233 236 244 251 239 221 226 232 226 224 223 221 223 231 234 230 244 239 208 214 248 275 285 285 279 280 285 280 273 274 279 287 289 278 279 274 270 270 273 275 278 281 284 285 285 285 284 282 281 280 278 277 277 277 274 267 259 253 247 242 239 235 234 233 233 232 233 233 233 233 232 231 230 229
236 235 236 252 232 210 231 244 238 226 225 230 229 238 241 236 240 242 233 230 234 260 272 281 279 274 266 270 279 277 285 291 285 283 278 276 277 278 272 274 270 276 278 278 280 281 280 278 278 276 275 274 274 273 272 268 260 252 247 242 237 233 230 230 229 229 229 229 230 231 231 231 230 228
231 237 242 248 240 219 223 245 248 236 235 233 234 239 245 244 241 246 247 238 252 257 266 275 287 287 283 285 276 275 279 293 297 292 284 280 266 273 283 271 276 281 282 286 282 280 276 275 273 274 273 273 272 270 268 267 260 252 246 242 237 232 229 227 227 226 226 226 227 227 229 230 230 229
231 236 241 245 232 230 227 238 242 242 242 236 243 241 247 253 247 249 253 249 262 262 266 274 274 283 286 280 287 288 290 286 280 287 290 285 281 280 276 289 282 283 283 274 270 272 276 277 277 275 274 272 270 268 266 263 257 251 245 240 236 231 227 225 224 224 223 222 223 223 224 227 229 229
231 230 236 239 236 231 230 225 236 229 243 238 247 245 244 251 249 252 254 265 263 262 263 264 278 285 290 292 283 287 286 284 272 250 278 291 298 295 291 279 294 289 284 288 282 268 268 269 266 264 262 262 263 263 263 259 253 248 244 239 235 230 226 223 222 222 221 219 218 218 219 222 225 227
231 234 232 235 237 233 241 240 240 241 235 234 244 252 233 239 239 250 255 267 266 268 265 269 273 281 285 283 287 288 283 272 275 288 287 285 286 289 291 281 264 277 284 279 281 272 266 276 270 270 266 261 263 266 258 254 250 245 239 237 234 230 224 221 219 219 219 218 216 215 216 217 221 224
227 231 229 237 239 244 250 254 252 249 247 241 239 247 239 235 238 246 266 266 264 264 264 266 275 284 283 283 283 281 272 274 280 281 279 283 292 296 286 275 255 279 284 286 282 277 276 277 280 274 273 270 265 271 269 258 249 241 235 233 231 228 224 218 216 215 215 216 215 215 214 216 218 220
234 228 230 239 252 256 261 262 260 259 256 252 244 243 245 246 239 250 258 259 262 262 260 265 268 272 278 280 281 279 280 278 279 280 278 287 292 294 302 303 289 184 268 285 289 286 276 278 278 277 272 268 265 263 262 265 249 239 237 232 229 227 223 218 213 212 212 213 214 214 214 214 215 216
228 232 237 238 231 248 250 256 269 269 266 259 257 256 254 252 244 234 243 255 263 259 257 258 263 272 276 285 286 284 282 285 287 281 288 286 288 290 289 291 289 291 299 289 290 286 279 270 268 270 268 265 260 254 255 257 258 244 236 232 229 225 222 218 213 210 210 212 213 214 213 212 211 212
220 218 229 267 269 262 257 261 259 267 276 271 265 266 271 268 257 246 240 240 246 261 266 275 277 270 279 286 285 285 287 294 290 292 287 283 279 276 282 279 284 289 296 291 284 283 277 273 272 271 263 260 258 254 247 246 249 247 237 231 228 224 220 216 214 211 209 209 211 212 212 210 209 209
211 208 206 228 264 267 269 258 261 265 265 272 285 285 269 267 266 251 239 240 246 250 256 257 260 271 273 276 282 287 290 292 292 293 291 288 283 282 280 282 287 285 287 276 281 280 271 263 267 268 267 259 254 250 248 248 247 243 237 232 227 223 220 216 213 212 211 210 209 210 211 210 208 208
208 200 193 207 241 263 274 268 272 285 293 299 297 294 291 288 288 288 286 274 271 267 255 254 262 271 276 276 280 285 289 290 289 288 289 288 284 285 285 284 273 271 252 265 262 271 274 251 255 259 257 255 255 255 245 239 242 246 247 237 229 222 219 216 213 211 211 211 210 210 210 209 207 206
205 200 195 210 231 247 262 285 304 314 316 303 296 292 293 301 303 297 288 279 276 275 278 275 272 276 282 285 289 289 290 291 288 290 289 285 283 283 287 287 284 281 264 258 259 266 271 265 259 262 256 252 253 247 244 238 232 234 237 236 230 222 217 215 213 211 210 210 210 210 210 208 206 205
207 201 199 214 235 255 263 318 353 358 351 300 292 293 298 303 308 305 300 255 251 259 263 264 268 271 274 276 276 275 274 272 277 283 288 286 287 290 292 288 290 285 281 271 262 261 270 264 254 258 251 248 251 250 246 241 235 231 230 229 226 221 216 213 211 210 208 208 209 209 209 207 205 203
220 227 224 229 241 261 283 11 36 14 321 299 291 298 303 311 314 311 308 305 280 257 265 272 271 268 268 269 270 271 270 273 273 274 283 284 292 287 285 290 292 287 281 274 264 262 258 261 252 250 252 246 240 245 244 241 239 236 230 226 222 218 215 211 210 208 208 207 207 207 207 206 201 199
224 237 238 260 287 262 316 84 60 353 301 274 284 287 300 306 308 308 327 320 315 319 319 310 311 305 289 293 298 295 287 281 281 274 271 282 284 288 287 287 295 295 286 253 254 267 264 254 247 221 249 249 245 226 230 227 229 230 232 221 220 217 212 210 207 207 208 206 206 206 204 202 188 191
213 228 277 306 95 95 148 116 117 253 261 250 242 230 274 304 297 328 317 309 308 307 310 309 310 306 305 303 300 302 301 299 297 292 283 281 281 284 289 288 285 284 289 292 283 270 268 255 255 210 220 239 259 231 213 220 216 219 219 217 220 209 209 209 209 208 206 205 206 205 202 193 180 192
254 277 258 241 57 99 154 179 259 261 246 237 220 243 286 284 313 323 307 307 304 305 309 309 307 306 308 306 304 303 301 299 304 302 295 287 280 281 286 291 288 287 285 289 299 286 268 252 244 229 216 224 247 268 264 213 202 202 208 208 213 208 179 203 204 206 207 208 206 203 197 185 185 192
228 243 268 284 99 117 137 257 254 238 215 232 239 308 300 305 307 303 305 306 313 314 313 312 309 310 312 313 312 307 305 302 304 302 294 293 292 285 280 284 291 296 297 300 301 290 264 251 237 225 221 217 239 231 263 245 210 205 200 205 205 200 188 195 194 204 200 200 204 200 193 186 188 195
245 240 269 291 58 82 338 268 220 201 239 252 257 301 298 290 288 290 314 317 319 317 316 315 311 309 311 314 313 313 311 307 305 302 298 297 297 291 289 284 278 281 287 293 296 296 263 252 233 225 223 224 236 225 234 247 227 194 199 202 204 202 182 186 194 199 196 191 201 185 184 184 189 195
243 269 274 306 343 317 283 242 194 177 240 299 323 300 297 308 312 317 320 327 321 319 317 316 313 308 310 313 311 312 310 305 303 301 298 299 298 296 294 295 294 295 295 295 298 297 276 244 242 231 225 224 227 229 230 217 232 205 202 199 194 195 179 190 193 191 187 188 169 155 168 180 194 191
238 331 315 294 282 247 168 175 161 177 238 264 277 305 334 337 330 328 328 329 327 324 321 317 312 304 302 302 301 300 302 301 303 302 302 299 298 299 302 303 301 297 298 303 306 308 295 269 255 255 259 278 263 243 234 229 208 213 197 178 198 194 183 191 189 189 182 173 175 169 183 185 179 182
355 309 290 79 108 119 132 139 141 140 123 125 7 352 352 351 335 330 324 325 324 316 314 312 309 303 304 303 304 306 304 304 308 313 312 315 314 318 318 314 308 304 306 311 313 319 309 288 266 265 274 268 285 266 231 228 228 214 192 194 186 151 198 186 187 180 171 177 176 184 189 186 179 171
60 52 73 114 100 104 111 95 88 87 93 63 355 359 352 341 333 322 323 318 314 312 308 308 305 304 305 306 309 309 315 312 310 315 312 314 311 317 316 310 308 318 321 322 320 327 322 312 301 252 244 264 270 281 293 275 249 218 206 198 169 185 187 185 179 172 177 174 173 169 160 165 171 189
100 111 119 121 122 119 106 98 82 68 57 45 358 349 350 345 333 324 318 308 290 285 289 302 305 307 311 315 314 317 315 309 312 320 317 315 314 317 318 317 322 322 321 330 334 339 338 322 313 244 216 217 251 267 273 269 275 257 201 184 189 167 143 180 176 177 170 156 153 167 174 176 182 183
132 126 122 121 112 117 116 104 85 70 37 32 357 347 344 331 313 306 324 331 328 319 318 319 322 314 320 318 314 315 313 316 319 321 316 317 320 317 321 320 318 323 328 331 333 335 337 332 338 353 67 59 32 6 305 283 263 228 196 187 206 180 168 177 181 144 136 150 166 166 172 183 187 183
122 118 112 106 117 118 121 116 108 79 14 341 333 328 314 325 327 336 332 330 323 319 318 314 315 317 322 320 319 318 317 313 318 322 322 316 323 323 325 324 322 321 325 327 331 334 334 334 333 19 43 82 77 58 42 5 297 198 196 204 187 184 159 147 135 141 162 167 162 160 167 171 180 184
135 136 123 120 121 125 131 129 142 96 6 355 318 331 337 347 343 338 328 330 325 320 318 317 315 315 319 318 318 317 317 317 317 319 322 317 323 327 323 323 323 326 329 330 335 337 336 335 333 325 332 274 56 75 61 52 7 333 186 158 178 147 160 163 146 147 152 146 151 157 163 166 178 187
117 133 132 134 132 134 129 124 119 104 81 347 348 343 352 354 353 340 329 327 319 315 321 324 325 324 323 321 318 317 317 318 317 321 326 334 333 329 329 326 325 326 326 327 334 335 338 341 348 341 322 275 235 13 5 58 49 5 351 118 95 144 143 157 155 136 152 169 172 164 168 184 188 176
133 132 135 137 141 139 127 126 127 113 92 21 5 1 354 341 339 326 318 312 311 318 323 318 317 322 323 323 320 318 319 322 323 325 325 323 324 328 331 327 328 327 327 326 329 334 345 353 355 2 357 11 43 19 340 306 36 45 37 353 347 15 151 157 149 153 163 168 168 177 185 179 182 174
144 147 144 144 136 130 129 125 125 110 64 30 357 344 350 333 323 314 312 320 327 323 324 324 324 328 329 329 326 324 323 321 318 322 324 330 336 336 334 326 324 327 325 316 323 341 353 356 4 6 17 21 20 13 350 360 14 15 16 5 321 329 330 150 137 148 161 175 168 173 174 180 182 184
146 152 145 141 140 147 133 131 112 99 76 16 357 350 342 336 328 324 328 328 327 324 324 325 334 334 328 328 325 322 321 325 331 333 333 333 334 329 328 331 325 326 325 326 334 348 356 5 9 4 4 11 30 11 8 42 39 15 17 23 1 316 344 10 150 161 172 179 178 137 65 74 62 102
144 135 141 140 142 131 125 125 117 90 71 27 351 4 360 346 335 327 329 331 326 325 323 333 334 331 328 332 327 324 320 323 325 324 326 325 323 327 328 328 318 321 324 330 338 344 352 356 5 7 357 354 336 311 294 343 169 40 24 24 20 12 331 322 47 142 159 164 145 151 158 133 136 123
159 154 148 130 130 133 132 121 110 109 61 69 10 16 26 351 327 341 333 333 325 324 334 332 333 328 328 329 330 330 325 325 329 332 331 328 332 332 330 333 333 340 333 328 334 336 339 332 341 344 348 342 340 302 29 39 36 23 20 17 20 23 30 45 54 53 76 48 175 163 160 163 150 145
147 135 131 139 135 131 130 132 130 105 75 67 47 22 19 359 1 328 314 325 322 324 326 331 333 327 327 328 330 331 328 327 329 333 335 337 336 334 336 342 343 339 336 330 326 323 316 326 334 347 353 1 9 26 38 33 35 26 19 5 9 27 39 51 61 60 55 37 96 137 127 134 122 162
138 139 141 135 127 130 133 127 132 98 102 105 86 43 39 21 347 345 348 339 334 334 333 329 330 326 325 326 330 331 328 332 332 331 334 338 340 336 339 337 335 330 327 315 318 320 330 336 347 352 6 18 13 23 31 29 30 29 20 16 12 5 22 44 59 65 61 55 54 64 32 352 158 173
143 144 139 137 136 134 137 137 138 135 126 132 119 112 51 22 2 351 336 334 331 333 325 325 327 329 329 328 328 330 341 338 331 330 333 334 336 335 334 333 333 333 334 341 335 333 337 349 352 351 15 18 6 18 25 24 28 25 22 16 10 17 22 11 21 57 59 51 43 45 54 61 63 75
153 148 145 146 142 142 143 148 143 138 140 146 146 97 74 23 348 340 329 328 330 327 323 326 325 327 328 330 336 338 337 336 332 325 327 335 340 341 340 340 337 340 345 341 341 342 346 344 350 2 17 18 13 12 13 25 25 26 20 15 12 8 14 8 24 42 55 58 34 39 47 57 65 72